AFR1640 LFPG-EHAM

Flight info

Callsign AFR1640
Flight time 0h 32m
Altitude 28000
Route NURMO DCT CMB DCT VEKIN DCT ADUTO N873 FERDI Y18 DENUT
Aircraft A320/M-SDE3FGHIRWY/LB1

Departure

Time 2026-05-04 15:59
Airport Charles de Gaulle International Airport (LFPG)

Arrival

Time 2026-05-04 16:31
Airport Amsterdam Airport Schiphol (EHAM)
Time Latitude Longitude Altitude Speed Heading
2026-05-04 15:43 49.00733 2.57848 360 ft 0 kts 167°
2026-05-04 15:50 49.00753 2.57843 363 ft 3 kts 181°
2026-05-04 15:50 49.00774 2.57849 362 ft 3 kts 219°
2026-05-04 15:50 49.00784 2.57871 364 ft 1 kts 265°
2026-05-04 15:52 49.00782 2.57844 361 ft 8 kts 265°
2026-05-04 15:52 49.00785 2.57760 360 ft 7 kts 296°
2026-05-04 15:53 49.00824 2.57734 359 ft 6 kts
2026-05-04 15:53 49.00858 2.57739 360 ft 4 kts
2026-05-04 15:53 49.00880 2.57726 361 ft 7 kts 306°
2026-05-04 15:53 49.00880 2.57584 359 ft 15 kts 265°
2026-05-04 15:54 49.00871 2.57417 354 ft 17 kts 265°
2026-05-04 15:54 49.00860 2.57220 354 ft 20 kts 265°
2026-05-04 15:54 49.00848 2.57001 354 ft 22 kts 265°
2026-05-04 15:54 49.00834 2.56748 354 ft 25 kts 265°
2026-05-04 15:55 49.00820 2.56473 354 ft 27 kts 263°
2026-05-04 15:55 49.00791 2.56188 362 ft 28 kts 262°
2026-05-04 15:55 49.00764 2.55890 361 ft 29 kts 262°
2026-05-04 15:55 49.00737 2.55586 356 ft 29 kts 264°
2026-05-04 15:56 49.00713 2.55347 359 ft 22 kts 251°
2026-05-04 15:56 49.00602 2.55261 360 ft 21 kts 163°
2026-05-04 15:56 49.00458 2.55324 357 ft 22 kts 164°
2026-05-04 15:56 49.00305 2.55392 361 ft 23 kts 163°
2026-05-04 15:57 49.00145 2.55464 355 ft 24 kts 163°
2026-05-04 15:57 48.99978 2.55529 358 ft 25 kts 165°
2026-05-04 15:57 48.99846 2.55691 357 ft 25 kts 112°
2026-05-04 15:57 48.99803 2.55915 357 ft 17 kts 105°
2026-05-04 15:58 48.99729 2.56031 354 ft 17 kts 175°
2026-05-04 15:58 48.99618 2.56054 354 ft 12 kts 138°
2026-05-04 15:58 48.99616 2.56167 356 ft 13 kts 84°
2026-05-04 15:58 48.99638 2.56575 355 ft 73 kts 86°
2026-05-04 15:59 48.99695 2.57665 353 ft 130 kts 85°
2026-05-04 15:59 48.99782 2.59267 444 ft 166 kts 85°
2026-05-04 15:59 48.99883 2.61010 1107 ft 163 kts 85°
2026-05-04 15:59 48.99978 2.62732 1793 ft 165 kts 85°
2026-05-04 16:00 49.00063 2.64582 2156 ft 185 kts 86°
2026-05-04 16:00 49.00146 2.66629 2556 ft 201 kts 86°
2026-05-04 16:00 49.00251 2.68866 2925 ft 224 kts 85°
2026-05-04 16:00 49.00504 2.73499 3844 ft 259 kts 85°
2026-05-04 16:01 49.00807 2.79030 5618 ft 266 kts 85°
2026-05-04 16:01 49.01314 2.84675 7254 ft 276 kts 65°
2026-05-04 16:01 49.04453 2.87726 8809 ft 287 kts 359°
2026-05-04 16:01 49.08442 2.86956 10418 ft 295 kts 354°
2026-05-04 16:02 49.12825 2.86234 11110 ft 333 kts 355°
2026-05-04 16:02 49.17448 2.85541 12519 ft 343 kts 355°
2026-05-04 16:02 49.27179 2.84090 15168 ft 360 kts 355°
2026-05-04 16:03 49.32201 2.83317 16430 ft 366 kts 354°
2026-05-04 16:03 49.37325 2.82518 17630 ft 373 kts 354°
2026-05-04 16:03 49.42540 2.81722 18730 ft 381 kts 354°
2026-05-04 16:03 49.47844 2.80910 19768 ft 388 kts 353°
2026-05-04 16:04 49.53278 2.80063 20795 ft 394 kts 353°
2026-05-04 16:04 49.64366 2.78353 22744 ft 406 kts 353°
2026-05-04 16:04 49.70031 2.77481 23652 ft 412 kts 353°
2026-05-04 16:05 49.75776 2.76596 24407 ft 417 kts 353°
2026-05-04 16:05 49.81610 2.76723 25098 ft 425 kts 10°
2026-05-04 16:05 49.92289 2.85013 26585 ft 439 kts 33°
2026-05-04 16:06 49.97488 2.90103 27334 ft 444 kts 33°
2026-05-04 16:06 50.11230 3.03652 27977 ft 423 kts 33°
2026-05-04 16:07 50.17803 3.10174 27966 ft 421 kts 33°
2026-05-04 16:07 50.33456 3.22576 27962 ft 421 kts 24°
2026-05-04 16:08 50.38811 3.26353 27959 ft 422 kts 24°
2026-05-04 16:08 50.52836 3.37153 27955 ft 422 kts 26°
2026-05-04 16:09 50.63581 3.44543 27969 ft 421 kts 23°
2026-05-04 16:09 50.78522 3.54804 27962 ft 420 kts 24°
2026-05-04 16:10 50.84560 3.59025 27978 ft 421 kts 24°
2026-05-04 16:11 50.92795 3.63654 27747 ft 414 kts
2026-05-04 16:11 50.95635 3.63975 27479 ft 404 kts
2026-05-04 16:12 51.03905 3.64513 26700 ft 394 kts
2026-05-04 16:12 51.12053 3.65023 25920 ft 384 kts
2026-05-04 16:13 51.17358 3.65350 25055 ft 379 kts
2026-05-04 16:13 51.22435 3.67154 24192 ft 376 kts 21°
2026-05-04 16:14 51.27223 3.70302 23416 ft 369 kts 22°
2026-05-04 16:14 51.31936 3.73425 21922 ft 374 kts 22°
2026-05-04 16:15 51.39035 3.78138 19891 ft 353 kts 22°
2026-05-04 16:16 51.43506 3.81106 19047 ft 346 kts 22°
2026-05-04 16:16 51.50112 3.85501 17755 ft 342 kts 22°
2026-05-04 16:17 51.54469 3.88414 16944 ft 337 kts 22°
2026-05-04 16:18 51.60908 3.92728 15767 ft 332 kts 22°
2026-05-04 16:18 51.63038 3.94158 15382 ft 331 kts 22°
2026-05-04 16:19 51.69390 3.98427 14215 ft 329 kts 22°
2026-05-04 16:19 51.73599 4.01266 13411 ft 327 kts 22°
2026-05-04 16:20 51.79707 4.05404 12255 ft 303 kts 22°
2026-05-04 16:20 51.83488 4.07963 11527 ft 287 kts 22°
2026-05-04 16:21 51.88961 4.11684 10442 ft 285 kts 22°
2026-05-04 16:22 51.92434 4.14755 9669 ft 289 kts 40°
2026-05-04 16:22 51.97088 4.20933 8438 ft 289 kts 39°
2026-05-04 16:23 52.01743 4.27084 7219 ft 287 kts 39°
2026-05-04 16:24 52.07818 4.35142 5548 ft 279 kts 39°
2026-05-04 16:25 52.10771 4.39079 4876 ft 270 kts 39°
2026-05-04 16:26 52.16238 4.46379 3445 ft 233 kts 39°
2026-05-04 16:26 52.19869 4.51239 2329 ft 219 kts 39°
2026-05-04 16:27 52.21659 4.54919 2026 ft 199 kts 56°
2026-05-04 16:28 52.23550 4.59833 1908 ft 148 kts 54°
2026-05-04 16:28 52.25137 4.63939 1411 ft 139 kts 54°
2026-05-04 16:29 52.27165 4.69243 665 ft 135 kts 54°
2026-05-04 16:30 52.28672 4.73099 123 ft 133 kts 55°
2026-05-04 16:31 52.29577 4.75457 -2 ft 91 kts 58°
2026-05-04 16:31 52.30172 4.76663 -1 ft 18 kts 28°
2026-05-04 16:32 52.30349 4.76628 -1 ft 6 kts 279°
2026-05-04 16:33 52.30394 4.76555 -1 ft 4 kts 329°
2026-05-04 16:33 52.30461 4.76483 -1 ft 5 kts 327°
2026-05-04 16:34 52.30500 4.76533 -1 ft 5 kts 58°
2026-05-04 16:34 52.30508 4.76555 -1 ft 1 kts 59°
2026-05-04 16:35 52.30508 4.76556 -1 ft 0 kts 59°